Content
SEND FEEDBACK

Daily
Averages
Monthly
Summary
United States of America

INARAJAN, GUAM


Home > North America > United States > Guam
Elevation: 280 feet     Latitude: 13 18N     Longitude: 144 44E

WEATHER
 
SELECT A DAY
Number of Records: 341,631;   Date Range: 1/1/95 - 7/20/14
 
SHARE

PRINT THIS DATA

[ ← Previous Day ]
WEATHER ALMANAC - AUGUST 22, 2013
[ Next Day → ]
[ °C ]   °F
Weather ElementAverageHighLow
Temperature81 °F86 °F (1:54 pm)77 °F (12:54 am)
Dewpoint76 °F77.5 °F (10:55 am)74.8 °F (6:55 am)
Humidity85.1 %94 % (12:54 am)74 % (1:54 pm)
Barometer29.80 in29.86 in (9:28 pm)29.73 in (2:55 am)
Wind Speed9.8 mph13.8 mph (11:43 pm)
Weather ElementAverage
Visibility9 mi
Wind DirectionE (95.6 °)

Weather ElementTotal
Precipitation0.17 in
Cooling Degree Days16.5 (Base 65)
Growing Degree Days31.5 (Base 50)
Averaged from 70 records on August 22, 2013
WEATHER CONDITIONS BREAKOUT
WIND DIRECTION BREAKOUT
WEATHER BY HOUR - AUGUST 22, 2013
[ °C ]   °F
Local TimeTemperatureDewpointHumidityBarometerVisibilityWind DirectionWind SpeedGust SpeedPrecipitationEventsConditions
12:54 AM77.0 °F75.2 °F94 %29.75 in10.0 miESE (120°)5.8 mphClear
12:55 AM77.9 °F76.1 °F94 %29.75 in10.0 miESE (120°)5.8 mph0.01 inClear
1:55 AM78.1 °F75.7 °F92 %29.74 in10.0 miESE (110°)5.8 mphClear
2:55 AM78.8 °F75.9 °F91 %29.73 in10.0 miEast (100°)8.1 mphPartly Cloudy
3:55 AM79.0 °F76.1 °F91 %29.73 in10.0 miESE (110°)5.8 mphPartly Cloudy
4:55 AM79.3 °F75.4 °F88 %29.73 in10.0 miEast (100°)6.9 mphPartly Cloudy
5:20 AM78.8 °F77.0 °F94 %29.73 in10.0 miEast (100°)4.6 mphMostly Cloudy
5:42 AM78.8 °F77.0 °F94 %29.74 in10.0 miESE (120°)5.8 mphScattered Clouds
5:47 AM78.8 °F75.2 °F89 %29.74 in10.0 miESE (110°)6.9 mphMostly Cloudy
5:55 AM79.3 °F75.9 °F89 %29.75 in10.0 miESE (110°)6.9 mphScattered Clouds
6:34 AM78.8 °F75.2 °F89 %29.75 in9.0 miEast (100°)9.2 mphRainLight Rain
6:43 AM78.8 °F77.0 °F94 %29.76 in2.5 miEast (100°)9.2 mphRainRain
6:45 AM78.8 °F75.2 °F89 %29.76 in2.0 miEast (100°)10.4 mphRainRain
6:47 AM78.8 °F75.2 °F89 %29.76 in1.8 miEast (90°)10.4 mphRainRain
6:50 AM77.0 °F75.2 °F94 %29.76 in2.0 miEast (100°)8.1 mphRainRain
6:52 AM77.0 °F75.2 °F94 %29.76 in2.5 miEast (100°)6.9 mphRainLight Rain
6:55 AM77.2 °F74.8 °F92 %29.76 in3.0 miEast (100°)6.9 mph0.08 inRainLight Rain
6:58 AM77.0 °F75.2 °F94 %29.76 in8.0 miEast (100°)5.8 mphScattered Clouds
7:42 AM78.8 °F77.0 °F94 %29.77 in10.0 miEast (90°)5.8 mphLight Drizzle
7:49 AM78.8 °F75.2 °F89 %29.78 in4.0 miENE (60°)12.7 mphRainHeavy Rain
7:55 AM78.8 °F76.5 °F92 %29.78 in2.5 miEast (90°)9.2 mph0.07 inRainRain
8:02 AM78.8 °F75.2 °F89 %29.78 in3.0 miEast (100°)8.1 mphRainLight Rain
8:14 AM78.8 °F77.0 °F94 %29.78 in10.0 miSE (130°)5.8 mphMostly Cloudy
8:20 AM78.8 °F75.2 °F89 %29.78 in10.0 miESE (110°)5.8 mphScattered Clouds
8:55 AM81.1 °F77.2 °F88 %29.78 in10.0 miEast (90°)9.2 mph0.01 inClear
9:55 AM82.9 °F77.2 °F83 %29.78 in10.0 miEast (100°)10.4 mphScattered Clouds
10:49 AM84.2 °F77.0 °F79 %29.83 in10.0 miEast (80°)12.7 mphMostly Cloudy
10:55 AM83.7 °F77.5 °F82 %29.79 in10.0 miEast (90°)12.7 mphMostly Cloudy
10:58 AM83.7 °F77.5 °F82 %29.79 in10.0 miEast (90°)12.7 mphMostly Cloudy
11:18 AM84.2 °F77.0 °F79 %29.83 in10.0 miEast (90°)11.5 mphScattered Clouds
11:54 AM84.2 °F77.0 °F79 %29.82 in10.0 miEast (100°)12.7 mphScattered Clouds
12:55 PM84.7 °F76.5 °F76 %29.78 in10.0 miEast (80°)11.5 mphMostly Cloudy
1:54 PM86.0 °F77.0 °F74 %29.79 in10.0 miEast (100°)12.7 mphScattered Clouds
1:55 PM85.5 °F77.2 °F76 %29.75 in10.0 miESE (110°)11.5 mphScattered Clouds
2:54 PM84.2 °F77.0 °F79 %29.78 in10.0 miEast (100°)11.5 mphScattered Clouds
3:37 PM84.2 °F77.0 °F79 %29.79 in10.0 miEast (90°)11.5 mphMostly Cloudy
3:45 PM84.2 °F77.0 °F79 %29.79 in10.0 miEast (90°)11.5 mphScattered Clouds
3:48 PM84.2 °F77.0 °F79 %29.79 in10.0 miEast (100°)10.4 mphMostly Cloudy
3:54 PM84.2 °F75.2 °F74 %29.79 in10.0 miEast (90°)10.4 mphMostly Cloudy
4:07 PM84.2 °F77.0 °F79 %29.79 in10.0 miEast (100°)9.2 mphScattered Clouds
4:10 PM84.2 °F77.0 °F79 %29.79 in10.0 miEast (90°)10.4 mphMostly Cloudy
4:13 PM84.2 °F77.0 °F79 %29.79 in10.0 miEast (90°)9.2 mphScattered Clouds
4:15 PM84.2 °F77.0 °F79 %29.79 in10.0 miEast (80°)10.4 mphMostly Cloudy
4:20 PM84.2 °F77.0 °F79 %29.79 in10.0 miEast (80°)11.5 mphScattered Clouds
4:24 PM84.2 °F77.0 °F79 %29.79 in10.0 miEast (90°)11.5 mphMostly Cloudy
4:34 PM84.2 °F77.0 °F79 %29.79 in10.0 miEast (90°)11.5 mphScattered Clouds
4:54 PM84.2 °F77.0 °F79 %29.80 in10.0 miEast (90°)12.7 mphPartly Cloudy
5:58 PM81.7 °F75.6 °F82 %29.81 in10.0 miEast (80°)8.1 mphScattered Clouds
6:58 PM80.6 °F75.6 °F85 %29.81 in10.0 miEast (90°)10.4 mphScattered Clouds
7:58 PM80.4 °F75.9 °F86 %29.82 in10.0 miEast (90°)8.1 mphScattered Clouds
8:58 PM80.6 °F75.2 °F84 %29.85 in10.0 miEast (90°)10.4 mphMostly Cloudy
9:03 PM80.6 °F75.2 °F84 %29.85 in10.0 miEast (90°)10.4 mphScattered Clouds
9:08 PM80.6 °F75.2 °F84 %29.85 in10.0 miEast (90°)11.5 mphMostly Cloudy
9:18 PM80.6 °F75.2 °F84 %29.85 in10.0 miEast (100°)10.4 mphMostly Cloudy
9:28 PM80.6 °F75.2 °F84 %29.86 in10.0 miEast (90°)9.2 mphMostly Cloudy
9:43 PM80.6 °F75.2 °F84 %29.86 in10.0 miEast (100°)10.4 mphMostly Cloudy
9:48 PM80.6 °F75.2 °F84 %29.86 in10.0 miEast (100°)9.2 mphMostly Cloudy
9:53 PM80.6 °F75.2 °F84 %29.86 in10.0 miEast (90°)11.5 mphMostly Cloudy
9:58 PM80.6 °F75.2 °F84 %29.86 in10.0 miEast (90°)12.7 mphScattered Clouds
10:15 PM80.6 °F75.2 °F84 %29.86 in10.0 miEast (100°)10.4 mphRainLight Rain
10:26 PM80.6 °F77.0 °F89 %29.86 in10.0 miEast (100°)12.7 mphMostly Cloudy
10:56 PM80.6 °F75.2 °F84 %29.85 in10.0 miEast (100°)10.4 mphScattered Clouds
10:58 PM80.6 °F75.2 °F84 %29.85 in10.0 miEast (100°)10.4 mph0.00 inScattered Clouds
11:03 PM80.6 °F75.2 °F84 %29.85 in10.0 miEast (100°)12.7 mphMostly Cloudy
11:08 PM80.6 °F75.2 °F84 %29.85 in10.0 miEast (100°)11.5 mphScattered Clouds
11:23 PM80.6 °F75.2 °F84 %29.85 in10.0 miEast (100°)11.5 mphMostly Cloudy
11:28 PM80.6 °F75.2 °F84 %29.85 in10.0 miEast (100°)10.4 mphScattered Clouds
11:43 PM80.6 °F75.2 °F84 %29.85 in10.0 miEast (80°)13.8 mphMostly Cloudy
11:53 PM80.6 °F75.2 °F84 %29.84 in10.0 miENE (70°)13.8 mphMostly Cloudy
11:58 PM80.4 °F76.1 °F87 %29.84 in10.0 miENE (60°)12.7 mphMostly Cloudy
Hourly data recorded from PGUA, located miles away from Inarajan, Guam







STORIES FROM OUR PARTNERS